Regional Weather Roundup
Issued by NWS

Home | Current Version | Previous Version | Text Only | Print | Product List | Glossary Off
Versions: 1 2 3 4 5 6 7 8 9 10 11 12 13 14 15 16 17 18 19 20 21 22 23 24 25 26 27 28 29 30 31 32 33 34 35 36 37 38 39 40 41 42 43 44 45 46 47 48 49 50

000
ASUS45 KTFX 020104
RWRMT
MONTANA REGIONAL WEATHER ROUNDUP
NATIONAL WEATHER SERVICE GREAT FALLS MT
700 PM MDT TUE SEP 01 2015

NOTE: "FAIR" INDICATES FEW OR NO CLOUDS BELOW 12000 FEET WITH NO
SIGNIFICANT WEATHER AND/OR OBSTRUCTIONS TO VISIBILITY.

MTZ001>007-043-020200-
WEST OF THE DIVIDE

CITY           SKY/WX    TMP DP  RH WIND       PRES   REMARKS
KALISPELL      MOCLDY    77  35  21 S8        29.75F
MISSOULA       SUNNY     80  35  19 N9        29.75F
BUTTE          PTSUNNY   77  29  17 E7        29.88F
MULLAN PASS    PTSUNNY   59  27  29 SW9       29.93F
DEER LODGE       N/A     79  32  18 NW5       29.86F
EUREKA           N/A     73  39  29 SW10      29.77S
HAMILTON         N/A     79  48  34 N5        29.75F
LIBBY            N/A     77  36  22 CALM      29.76F
$$

MTZ008-052>055-020200-
SOUTHWEST MONTANA

CITY           SKY/WX    TMP DP  RH WIND       PRES   REMARKS
BOZEMAN        MOSUNNY   78  32  18 E3        29.82F
DILLON         PTSUNNY   77  34  21 SW8       29.83F
W YELLOWSTONE  SUNNY     73  27  17 SW13G21   30.03S
$$

MTZ009-010-012-014-046-048-049-054-020200-
EAST SLOPES AND CENTRAL MONTANA

CITY           SKY/WX    TMP DP  RH WIND       PRES   REMARKS
CUT BANK       PTSUNNY   73  29  19 W16       29.77S
GREAT FALLS    SUNNY     81  29  15 W15       29.77S
MALMSTROM AFB  MOSUNNY   82  31  16 W8        29.76F
HELENA         MOSUNNY   83  35  18 NE7       29.78F
$$

MTZ011-013-016-021-045-047-050-051-020200-
NORTH CENTRAL MONTANA

CITY           SKY/WX    TMP DP  RH WIND       PRES   REMARKS
HAVRE          PTCLDY    83  30  14 SW10      29.71F
LEWISTOWN      MOCLDY    74  38  27 N8        29.84S
N BAR RANCH      N/A     75  41  29 NE8       29.87S
CHINOOK          N/A     84  34  16 S5        29.72F
FORT BENTON      N/A     84  30  14 SW7       29.74S
$$

MTZ017>020-022>027-061-062-020200-
NORTHEAST MONTANA

CITY           SKY/WX    TMP DP  RH WIND       PRES   REMARKS
GLASGOW        CLEAR     84  36  18 NW3       29.74S
JORDAN           N/A     86  36  16 N6        29.75F
SIDNEY         CLEAR     86  41  20 W9        29.74R
WOLF POINT     CLEAR     83  42  23 W6        29.75S
PLENTYWOOD       N/A     82  41  23 W10       29.76R
POPLAR           N/A     84  37  18 W7        29.75S
$$

MTZ028>42-056>058-020200-
SOUTHCENTRAL AND SOUTHEAST MONTANA

CITY           SKY/WX    TMP DP  RH WIND       PRES   REMARKS
BAKER          CLEAR     86  46  24 NW5       29.81S
BILLINGS       PTCLDY    87  29  12 E12       29.79S
LIVINGSTON     CLEAR     86  29  12 NW9       29.82S
MILES CITY     CLEAR     90  33  13 N5        29.76S
FORSYTH          N/A     90  34  13 NE6       29.75F
$$

REGIONAL REPORTS...DAKOTAS

CITY           SKY/WX    TMP DP  RH WIND       PRES   REMARKS
WILLISTON      CLEAR     86  40  19 W12       29.73S
MINOT          CLEAR     82  54  37 S6        29.76R
DICKINSON      CLEAR     81  56  42 SE8       29.78S
BISMARCK       CLEAR     81  67  62 E6        29.76F
GRAND FORKS    PTCLDY    79  55  43 SE6       29.81R
FARGO          CLEAR     81  59  47 SE8       29.83S
BUFFALO SD       N/A     83  59  44 E7        29.77R
RAPID CITY     CLEAR     78  61  55 NE5       29.85R
$$

REGIONAL REPORTS...WYOMING/IDAHO/WASHINGTON

CITY           SKY/WX    TMP DP  RH WIND       PRES   REMARKS
GILLETTE       CLEAR     81  40  23 E7        29.88S
SHERIDAN       CLEAR     87  34  15 SE3       29.82S
BUFFALO WY     PTCLDY    82  29  14 E7        29.91S
CODY           CLEAR     82  30  15 W8        29.89S
YELLOWSTONE LA   N/A     67  25  20 VRB7      30.16S
IDAHO FALLS    MOSUNNY   83  31  15 S8        29.90F
SALMON         PTSUNNY   82  43  24 N7        29.73S
BOISE          PTSUNNY   86  42  21 NW7       29.75F
SPOKANE        PTSUNNY   72  41  32 SW15      29.77F
$$

REGIONAL REPORTS...ALBERTA

CITY           SKY/WX    TMP DP  RH WIND       PRES   REMARKS
EDMONTON       LGT RAIN  64  34  32 N6        29.68R
$$

REGIONAL REPORTS...SASKATCHEWAN

CITY           SKY/WX    TMP DP  RH WIND       PRES   REMARKS
$$


USA.gov is the U.S. government's official web portal to all federal, state and local government web resources and services.